Location: Bude?ti
(46.3667°N, 22.8667°E)
Time: 21:38:36
(UTC+00:00)

Daily predictions for brighter satellites

Satellite Brightness Start Highest point End
(mag) Time Altitude Azimuth Time Altitude Azimuth Time Altitude Azimuth
Cosmos 2297 Rocket 4.0 18:58:17 10° ESE 18:59:49 11° E 19:01:21 10° E
Cosmos 1242 Rocket 4.1 19:00:35 10° ESE 19:01:18 11° E 19:02:02 10° ENE
Aureole 3 4.3 18:58:36 10° SSE 19:02:57 46° E 19:08:20 10° NNE
Cosmos 1707 Rocket 3.6 19:01:38 10° S 19:06:03 70° E 19:10:27 10° NNE
ATLAS 2AS CENTAUR R/B 3.1 19:00:22 10° NW 19:07:02 60° WSW 19:13:30 10° SSE
Cosmos 1356 Rocket 3.5 19:03:11 10° S 19:07:23 89° E 19:11:36 10° N
Cosmos 2219 Rocket 2.3 19:02:04 10° NNW 19:07:48 79° ENE 19:13:28 10° SSE
Cosmos 1758 3.5 19:06:23 10° NNW 19:10:19 74° W 19:14:16 10° S
MOS 1 4.4 19:04:51 10° SSE 19:10:30 80° WSW 19:16:11 10° NNW
ATLAS CENTAUR R/B 4.1 19:13:53 10° W 19:16:39 21° NW 19:19:29 10° NNE
Cosmos 1655 Rocket 4.1 19:11:47 10° S 19:18:12 88° WNW 19:24:37 10° N
Cosmos 1733 Rocket 3.2 19:16:26 10° N 19:20:52 80° W 19:25:17 10° S
Spot 2 Rocket 3.8 19:16:50 10° SE 19:21:46 54° ENE 19:26:44 10° N
SPOT 3 Rocket 4.0 19:18:23 10° SE 19:23:18 48° ENE 19:28:18 10° N
EXPRESS MD2 3.7 19:22:23 10° WNW 19:25:11 36° N 19:27:18 10° ENE
Cosmos 1455 2.8 19:23:11 10° N 19:26:27 35° ENE 19:29:16 13° SE
Resurs 01 Rocket 4.1 19:27:19 10° SW 19:30:21 18° W 19:33:25 10° NW
MetOp-B 4.5 19:25:44 10° S 19:31:02 66° WSW 19:36:24 10° NNW
SeaSat 1 3.0 19:28:53 11° SE 19:33:26 50° NE 19:38:11 10° NNW
Cosmos 2360 Rocket 3.6 19:32:17 10° NW 19:37:19 34° WSW 19:42:20 10° SSW
COSMOS 2428 2.9 19:32:22 10° NNW 19:38:04 66° ENE 19:43:02 14° SE
CENTAUR R/B 4.0 19:36:42 11° ESE 19:38:42 13° ESE 19:41:28 10° ENE
Cosmos 158 Rocket 4.4 19:34:19 10° NNW 19:39:27 51° ENE 19:43:41 14° SE
Cosmos 2208 Rocket 4.3 19:35:15 10° NNW 19:40:20 54° ENE 19:44:36 14° SE
Cosmos 1908 Rocket 3.7 19:38:31 10° N 19:42:47 57° ENE 19:46:16 15° SSE
Cosmos 1953 2.2 19:40:44 10° N 19:44:32 68° E 19:47:36 15° SSE
Cosmos 839 Rocket 4.5 19:40:22 10° NW 19:46:56 57° WSW 19:52:28 12° SSE
Ariane Rocket 3.0 19:42:23 12° SSE 19:47:07 83° ENE 19:52:14 10° NNW
Cosmos 2084 Rocket 3.9 19:50:40 10° S 19:54:39 37° ESE 19:58:32 10° NE
Cosmos 1486 Rocket 4.4 19:51:31 11° S 19:56:14 44° ESE 20:01:10 10° NNE
NOSS 0 Rocket 4.1 19:56:04 10° NNW 20:02:20 72° ENE 20:07:09 18° SE
Cosmos 1315 Rocket 3.3 19:58:51 10° SSW 20:02:46 59° WNW 20:06:44 10° N
USA 234 3.4 19:58:17 10° ENE 20:04:36 48° SE 20:10:51 10° SSW
MetOp-A 4.3 20:02:04 18° SE 20:05:58 59° ENE 20:11:02 10° N
ARIANE 5 R/B 4.2 20:04:21 13° ESE 20:07:05 22° ENE 20:10:28 10° NNE
GP-B 3.7 20:03:07 10° NNE 20:07:17 39° E 20:09:47 21° SE
SJ 16-02 3.5 20:04:39 10° WSW 20:08:21 27° WNW 20:12:05 10° N
Cosmos 371 Rocket 3.5 20:05:26 14° S 20:09:17 49° ESE 20:13:56 10° NNE
MOS 1 Rocket 4.0 20:07:08 12° S 20:12:01 58° W 20:17:05 10° NNW
BlueWalker 3 3.5 20:09:10 10° W 20:12:41 37° NNW 20:16:12 10° NE
Terra 2.7 20:09:19 11° S 20:13:42 44° W 20:18:13 10° NNW
SL-4 R/B 2.4 20:10:54 10° WNW 20:14:38 46° SW 20:16:43 24° SSE
Cosmos 1386 Rocket 4.5 20:10:08 13° S 20:15:40 71° E 20:21:47 10° NNE
SL-16 R/B 4.0 20:12:48 10° N 20:17:11 22° NE 20:21:34 10° E
Cosmos 2333 Rocket 4.4 20:14:32 10° WNW 20:18:17 18° W 20:22:01 10° SW
Spot 1 4.3 20:13:32 10° NNE 20:18:18 75° ESE 20:22:30 14° S
USA 281 4.3 20:13:11 11° ESE 20:18:47 36° NE 20:24:39 10° NNW
Cosmos 1745 Rocket 4.1 20:14:07 16° S 20:19:17 65° E 20:25:36 10° NNE
Cosmos 2237 Rocket 2.5 20:13:45 10° NNW 20:19:20 57° ENE 20:23:11 20° SE
COSMOS 2455 2.8 20:13:34 10° SSW 20:19:35 85° ESE 20:25:39 10° NE
Okean 1-7 4.0 20:15:30 10° SSW 20:19:40 47° WNW 20:23:50 10° N
CZ-4C R/B 1.7 20:15:22 10° SSW 20:19:47 82° SE 20:25:21 10° NE
BREEZE-M DEB (TANK) 3.0 20:18:36 10° W 20:20:41 34° SSW 20:21:42 26° SSE
BREEZE-M DEB (TANK) 2.9 20:20:44 10° SW 20:22:59 37° SSE 20:25:48 10° ENE
Nadezhda 1 Rocket 4.0 20:17:44 10° N 20:24:01 81° E 20:28:26 20° SSE
Cosmos 2227 Rocket 3.2 20:21:35 21° SE 20:24:03 29° ESE 20:28:51 10° NE
Cosmos 1703 Rocket 3.9 20:20:16 11° SSW 20:24:33 66° W 20:28:59 10° N
Landsat 5 3.4 20:21:33 10° NNE 20:25:43 85° ESE 20:28:57 17° SSW
Meteor 2-5 Rocket 4.5 20:22:51 21° SE 20:26:08 38° E 20:31:25 10° NNE
ERS-1 Rocket 4.5 20:23:02 10° SSW 20:27:26 30° W 20:31:52 10° NNW
BREEZE-M DEB (TANK) 4.4 20:09:55 10° W 20:28:41 71° N 20:33:09 10° E
Cosmos 1242 Rocket 3.9 20:30:35 10° SW 20:32:56 26° WNW 20:35:17 10° NNW
Cosmos 1980 3.7 20:28:12 10° NNW 20:33:54 77° ENE 20:37:25 24° SE
Cosmos 773 Rocket 4.0 20:29:46 10° NNW 20:34:57 80° ENE 20:37:59 26° SSE
Cosmos 304 Rocket 3.7 20:35:00 17° SSW 20:38:36 77° ESE 20:43:23 10° NNE
Cosmos 2297 Rocket 2.1 20:37:50 13° SSW 20:42:49 75° ESE 20:48:28 10° NNE
NOSS 3-2 (A) 4.1 20:46:22 24° SE 20:47:26 25° ESE 20:52:06 10° ENE
ALOS 2 4.4 20:48:20 15° ESE 20:50:34 22° ENE 20:53:57 10° NNE
Cosmos 2219 Rocket 4.3 20:47:29 10° WNW 20:51:01 17° W 20:54:32 10° SW
Cosmos 2181 Rocket 4.5 20:47:39 10° N 20:53:35 46° ENE 20:56:57 24° SE
CZ-2C R/B 3.7 20:52:37 10° NNE 20:57:02 65° ESE 20:59:00 32° S
Cosmos 2098 Rocket 4.1 20:50:34 10° N 20:57:02 64° ENE 21:00:14 28° SSE
Cosmos 2219 4.2 20:56:02 25° SE 20:57:40 29° ESE 21:02:27 10° NE
MINOTAUR 4 R/B 4.4 20:57:02 10° NNE 20:59:32 35° E 20:59:32 35° E
Cosmos 1703 3.0 20:58:36 39° S 20:59:53 87° E 21:03:35 10° N
Cosmos 1777 Rocket 3.9 20:58:57 21° SSW 21:02:34 86° ESE 21:07:53 10° NNE
Cosmos 1408 3.3 21:01:32 25° SW 21:02:44 37° WNW 21:05:34 10° N
Cosmos 2263 Rocket 3.4 21:02:30 21° ESE 21:03:43 23° ESE 21:08:01 10° NE
Meteor 1-24 Rocket 3.7 21:00:37 27° S 21:03:51 75° E 21:09:22 10° NNE
SL-23 DEB 4.2 21:01:35 10° SW 21:05:29 72° SSE 21:12:10 10° ENE
Cosmos 332 Rocket 3.9 21:03:25 31° S 21:05:35 61° ESE 21:10:26 10° NNE
Cosmos 2221 Rocket 4.3 21:09:21 32° SE 21:10:34 39° E 21:14:41 10° NNE
SeaSat 1 3.9 21:08:35 18° SSW 21:11:04 26° WSW 21:15:10 10° NW
Cosmos 1825 2.9 21:11:31 31° E 21:11:41 31° E 21:14:45 10° NNE
Cosmos 1503 Rocket 4.3 21:08:20 15° SSW 21:12:46 67° WNW 21:18:03 10° NNE
Sich 1 Rocket 3.9 21:12:53 10° N 21:17:12 55° ENE 21:18:39 37° SE
Cosmos 2242 Rocket 4.3 21:14:55 21° SW 21:17:46 50° WNW 21:22:14 10° N
Cosmos 1709 Rocket 4.2 21:13:28 20° SSW 21:18:02 69° W 21:24:22 10° N
Okean 1 Rocket 4.0 21:14:50 10° N 21:18:55 37° ENE 21:20:25 29° ESE
Cosmos 1174 4.4 21:14:47 10° NW 21:19:13 45° WSW 21:20:11 37° SSW
BREEZE-M R/B 3.8 21:19:46 32° SSE 21:20:40 35° SE 21:28:26 10° ENE
PSLV R/B 3.7 21:17:32 10° NNE 21:21:33 84° ESE 21:22:46 43° S
Spot 4 3.9 21:24:29 35° SE 21:26:24 68° ENE 21:31:13 10° N
CENTAUR R/B 2.3 21:23:46 21° SSW 21:27:45 78° SE 21:34:44 10° NE
Cosmos 1892 2.4 21:29:14 58° SE 21:29:37 63° E 21:33:07 10° NNE
Cosmos 1025 Rocket 4.0 21:35:18 30° ESE 21:36:08 33° E 21:39:59 10° NNE
Cosmos 405 Rocket 3.4 21:39:28 10° NNW 21:43:02 41° W 21:43:50 35° SW
ARIANE 5 R/B 3.4 21:41:49 31° SW 21:43:14 41° W 21:47:22 10° NNW
Cosmos 2184 Rocket 4.1 21:41:41 33° SSE 21:44:41 68° E 21:51:02 10° NNE
Aureole 1 Rocket 3.3 21:45:36 42° SE 21:46:13 46° ESE 21:50:54 10° NNE
Cosmos 1898 Rocket 4.1 21:45:08 33° SE 21:46:23 39° ESE 21:51:09 10° NE
BREEZE-M DEB (TANK) 3.3 21:45:03 10° NW 21:47:30 27° N 21:48:22 20° NE
USA 234 3.7 21:41:17 10° NE 21:47:45 64° NNW 21:54:10 10° WSW
Cosmos 1455 Rocket 4.2 21:44:08 10° N 21:48:11 33° ENE 21:49:42 26° ESE
Cosmos 1378 Rocket 3.8 21:48:07 37° SW 21:49:42 62° W 21:54:06 10° N
Cosmos 1328 3.8 21:50:29 54° SE 21:51:01 61° E 21:54:52 10° NNE
BlueWalker 3 4.0 21:48:13 10° WNW 21:51:30 28° N 21:54:48 10° ENE
Cosmos 1674 Rocket 3.7 21:52:16 41° SSW 21:53:40 68° W 21:57:59 10° N
H-2A R/B 2.9 21:56:27 41° SSW 21:57:29 52° W 22:01:35 10° NNW
SL-12 R/B(2) 4.3 21:54:25 15° SW 22:01:22 90° NNE 22:11:13 10° NE
SL-16 R/B 2.2 21:56:14 10° NNW 22:01:57 77° WSW 22:04:11 38° SSE
Cosmos 2237 Rocket 3.7 21:58:32 10° NW 22:02:58 24° WSW 22:05:00 20° SW
USA 281 3.5 22:00:04 32° S 22:03:02 55° WSW 22:09:31 10° NNW
Cosmos 2154 Rocket 4.0 22:00:32 35° S 22:03:21 76° E 22:09:40 10° NNE
Cosmos 2227 Rocket 3.0 22:03:20 15° SW 22:07:50 49° WNW 22:13:20 10° NNE
Cosmos 990 Rocket 4.2 22:05:23 30° SW 22:07:54 66° WNW 22:13:01 10° NNE
Cosmos 1943 4.1 22:03:03 10° NNW 22:08:24 43° NE 22:12:08 19° ESE
CZ-4C R/B 4.3 22:04:51 10° W 22:08:58 25° NNW 22:13:57 10° NNE
Spot 2 4.5 22:08:00 42° S 22:09:41 71° WSW 22:14:39 10° NNW
Cosmos 2082 3.6 22:08:50 38° S 22:11:01 73° ESE 22:16:38 10° NNE
Cosmos 292 Rocket 3.7 22:14:28 43° SSW 22:16:04 87° WNW 22:20:54 10° NNE
PSLV R/B 3.4 22:12:17 10° NNE 22:16:29 74° ESE 22:17:19 54° SSE
Okean 2 Rocket 4.2 22:13:34 10° NNW 22:17:40 35° W 22:18:55 29° SW
Meteor 2-11 Rocket 4.4 22:18:16 36° S 22:20:56 89° E 22:27:05 10° N
Cosmos 1680 Rocket 3.9 22:17:01 10° NNW 22:22:10 57° ENE 22:24:39 29° SE
ALOS 2 3.2 22:25:43 37° SW 22:26:39 42° W 22:30:51 10° NNW
Cosmos 2297 Rocket 4.3 22:23:07 10° W 22:27:29 22° NW 22:31:52 10° N
Cosmos 2112 Rocket 4.5 22:22:55 10° NNW 22:28:01 54° ENE 22:30:37 27° SE
Cosmos 1610 Rocket 4.5 22:27:13 35° S 22:30:09 88° W 22:36:32 10° N
Cosmos 372 Rocket 3.9 22:28:38 42° S 22:30:24 79° ESE 22:35:38 10° NNE
Cosmos 1606 3.6 22:28:31 10° N 22:31:51 34° ENE 22:32:30 31° E
Cosmos 1900 4.4 22:33:51 44° S 22:35:24 70° ESE 22:40:29 10° NE
Cosmos 1461 3.2 22:34:55 36° WSW 22:36:15 55° NW 22:40:05 10° NNE
NOSS 3-2 (A) 3.7 22:33:40 18° WSW 22:37:37 58° NW 22:43:49 10° NE
Cosmos 1339 Rocket 4.5 22:34:16 10° N 22:40:43 88° E 22:43:39 35° S
Cosmos 2219 3.9 22:37:54 20° WSW 22:41:34 47° WNW 22:47:00 10° NNE
H-2A R/B 1.8 22:40:10 10° NNE 22:44:22 89° ESE 22:45:13 56° SSW
Cosmos 1825 4.2 22:44:58 14° W 22:45:57 16° WNW 22:48:09 10° NNW
Cosmos 2263 Rocket 2.6 22:44:09 26° SW 22:47:11 58° WNW 22:52:42 10° NNE
Orbus 7S? 3.4 22:45:34 10° NW 22:48:12 52° NE 22:49:29 29° E
NOSS 3-2 (C) 3.1 22:46:16 36° SW 22:48:35 86° SE 22:54:49 10° NE
Cosmos 858 Rocket 4.4 22:48:25 42° S 22:50:13 80° ESE 22:55:27 10° NNE
Cosmos 2227 4.3 22:51:40 38° S 22:53:47 63° ESE 22:59:29 10° NNE
Cosmos 921 Rocket 4.4 22:50:43 10° N 22:54:30 31° ENE 22:56:55 18° ESE
Cosmos 1544 Rocket 3.7 22:56:56 10° N 23:01:21 70° E 23:02:43 42° SSE
Cosmos 2341 Rocket 3.9 23:00:28 35° S 23:03:17 85° E 23:09:34 10° N
Cosmos 1818 4.2 22:58:31 10° NW 23:03:33 38° WSW 23:04:38 35° SW
Cosmos 1844 Rocket 3.3 23:01:41 32° SSE 23:03:36 44° ESE 23:08:51 10° NE
CZ-2D R/B 4.4 23:02:06 10° ENE 23:04:15 12° E 23:06:23 10° ESE
CRYOSAT 2 4.4 23:04:16 10° N 23:09:10 72° E 23:10:56 39° SSE
Meteor 1-11 4.3 23:09:36 35° SSW 23:12:08 76° WNW 23:17:58 10° N
Cosmos 1937 Rocket 3.9 23:09:52 30° SW 23:12:17 55° WNW 23:17:27 10° NNE
Cosmos 1975 Rocket 3.8 23:15:39 33° WSW 23:17:00 43° WNW 23:21:14 10° N
Resurs 1-4 Rocket 4.1 23:15:31 10° NE 23:19:06 18° E 23:22:29 11° SE
CENTAUR R/B 4.2 23:13:41 10° W 23:19:11 32° NNW 23:25:50 10° NE
CZ-2C R/B 4.5 23:18:33 10° ESE 23:23:00 27° ENE 23:27:33 10° N
Cosmos 2366 rocket 4.0 23:20:25 33° SSW 23:23:27 84° W 23:29:41 10° N
Cosmos 1455 Rocket 4.4 23:22:08 10° NNW 23:25:47 25° W 23:26:44 23° WSW
Cosmos 724 4.5 23:21:02 10° NNW 23:26:51 70° NE 23:32:41 10° SE
Cosmos 2218 Rocket 3.9 23:24:46 33° SSW 23:27:46 81° W 23:33:57 10° N
Cosmos 1437 Rocket 3.0 23:29:05 43° SE 23:29:55 55° E 23:33:35 10° NNE
BlueWalker 3 2.5 23:26:30 10° NW 23:30:13 56° NNE 23:33:54 10° ESE
Genesis I 4.4 23:26:53 10° NNW 23:30:17 37° NE 23:33:41 10° ESE
Cosmos 1869 3.7 23:28:32 10° NNW 23:32:03 41° W 23:32:26 39° WSW
Iridium 921 4.3 23:34:20 60° SSE 23:34:52 82° E 23:38:20 10° N
Cosmos 1606 Rocket 4.5 23:31:59 10° N 23:36:14 44° ENE 23:38:49 21° SE
IDEFIX/ARIANE 42P 3.8 23:31:57 10° NNE 23:36:39 33° E 23:39:36 19° SSE
MOZ.5/SAFIR/RUBIN 5/SL-8 4.3 23:35:41 22° SE 23:38:34 56° ENE 23:43:05 10° N
SL-16 R/B 4.2 23:43:11 10° WNW 23:45:02 12° W 23:46:02 11° WSW
Cosmos 2228 3.3 23:42:21 10° NNW 23:46:32 52° W 23:47:43 39° SW
Cosmos 1536 Rocket 3.5 23:45:24 39° SSW 23:46:58 76° W 23:51:22 10° N
Cosmos 1726 Rocket 4.5 23:44:10 10° N 23:48:26 44° ENE 23:51:24 18° SE
Cosmos 1603 3.9 23:45:58 10° NW 23:51:32 52° WSW 23:54:09 30° S
Cosmos 1943 4.0 23:47:20 10° NW 23:52:16 32° WSW 23:53:53 27° SW
Helios 1A Rocket 2.6 23:52:13 43° S 23:53:18 70° WSW 23:57:07 10° NNW
Cosmos 1867 4.0 23:50:22 22° WSW 23:53:46 56° NW 23:59:11 10° NNE
